Skip Page Navigation
NASA JPL Caltech
NASA Logo - Jet Propulsion Laboratory + View the NASA Portal
+ Center for Near-Earth Object Studies
JPL Home Earth Solar System Stars & Galaxies Technology
JPL Solar System Dynamics
BODIES ORBITS EPHEMERIDES TOOLS PHYSICAL DATA DISCOVERY FAQ SITE MAP
JPL Small-Body Database Browser
Search: [ help ]  
214815 (2006 UX281)
Classification: Main-belt Asteroid          SPK-ID: 2214815
Ephemeris | Orbit Diagram | Orbital Elements | Mission Design | Physical Parameters | Discovery Circumstances | Close-Approach Data ]

[ show orbit diagram ]
Orbital Elements at Epoch 2459000.5 (2020-May-31.0) TDB
Reference: JPL 15 (heliocentric ecliptic J2000)
 Element Value Uncertainty (1-sigma)   Units 
e .1033600745214328 3.5153e-08  
a 2.903890117854158 2.1765e-08 au
q 2.6037438188707 9.9054e-08 au
i 1.14002090275816 4.899e-06 deg
node 165.4351934764403 0.00020296 deg
peri 117.6868214627764 0.00020505 deg
M 25.68784641172986 2.648e-05 deg
tp 2458871.528458637078
(2020-Jan-23.02845864)
0.00013338 TDB
period 1807.460000595873
4.95
2.0321e-05
5.564e-08
d
yr
n .1991745321508179 2.2393e-09 deg/d
Q 3.204036416837616 2.4015e-08 au
  Orbit Determination Parameters
   # obs. used (total)      339  
   data-arc span      7886 days (21.59 yr)  
   first obs. used      1999-03-19  
   last obs. used      2020-10-20  
   planetary ephem.      DE431  
   SB-pert. ephem.      SB431-N16  
   condition code      0  
   norm. resid. RMS      .59506  
   source      ORB  
   producer      Otto Matic  
   solution date      2020-Nov-12 03:45:50  

Additional Information
 Earth MOID = 1.58754 au 
 Jupiter MOID = 1.9153 au 
 T_jup = 3.278 
[ show covariance matrix ]

Ephemeris | Orbit Diagram | Orbital Elements | Mission Design | Physical Parameters | Discovery Circumstances | Close-Approach Data ]

Physical Parameter Table
Parameter Symbol Value Units Sigma Reference Notes
absolute magnitude H 16.2   n/a MPO475762  

214815 (2006 UX281)          Discovered 2006-Oct-28 by Mt. Lemmon Survey at Mount Lemmon
Reference: 20090509/Numbers.arcLast Updated: 2009-05-11

[ show close-approach data ]
Alternate Designations
 2006 UX281 = 2004 GC48 
Ephemeris | Orbit Diagram | Orbital Elements | Mission Design | Physical Parameters | Discovery Circumstances | Close-Approach Data ]
ABOUT SSD CREDITS/AWARDS PRIVACY/COPYRIGHT GLOSSARY LINKS
FirstGov 2020-Dec-04 20:24 UT
(server date/time)  
NASA Home Page
Site Manager:   Ryan S. Park
Webmaster  Alan B. Chamberlin